Cape Girardeau, MO

9:24 AM CST on December 09, 2019 (GMT -0600)
Cape Girardeau Regional

Weather History for KCGI - October, 2019

Change the Weather History Date:

Saturday, October 19, 2019

  Actual Average Record
Temperature  
Mean Temperature 58 °F 57 °F  
Max Temperature 72 °F 70 °F 90 °F (2005)
Min Temperature 43 °F 44 °F 32 °F (1964)
Degree Days  
Heating Degree Days 7 9  
Month to date heating degree days 117 129  
Since 1 July heating degree days 117 178  
Cooling Degree Days 0 1  
Month to date cooling degree days 51 26  
Year to date cooling degree days 1775 1448  
Growing Degree Days 8 (Base 50)    
Moisture  
Dew Point 46 °F    
Average Humidity 64    
Maximum Humidity 89    
Minimum Humidity 38    
Precipitation  
Precipitation 0.00 in 0.12 in 1.23 in (1993)
Month to date precipitation 1.77 2.25  
Year to date precipitation 49.44 36.58  
Sea Level Pressure  
Sea Level Pressure 29.82 in    
Wind  
Wind Speed 4 mph (South)    
Max Wind Speed 12 mph    
Max Gust Speed 16 mph    
Visibility 10 miles    
Events      
T = Trace of Precipitation, MM = Missing Value Source: NWS Daily Summary

Daily Weather History Graph

Daily Weather History Graph

Search for Another Location

Airport or City:

Astronomy

Oct. 19, 2019 Rise Set
Actual Time 7:09 AM CDT 6:16 PM CDT
Civil Twilight 6:43 AM CDT 6:42 PM CDT
Nautical Twilight 6:13 AM CDT 7:12 PM CDT
Astronomical Twilight 5:42 AM CDT 7:43 PM CDT
Moon 10:30 PM CDT (10/19) 12:36 PM CDT (10/19)
Length of Visible Light 11h 59m
Length of Day
11h 06m
Waning Gibbous, 69% of the Moon is Illuminated
Oct 19
Waning Gibbous
Oct 21
Last Quarter
Oct 27
New
Nov 4
First Quarter
Nov 12
Full

Hourly Weather History & Observations

Time (CDT) Temp. Windchill Dew Point Humidity Pressure Visibility Wind Dir Wind Speed Gust Speed Precip Events Conditions
12:53 AM 46.9 °F - 43.0 °F 86% 29.86 in 10.0 mi Calm Calm - N/A   Clear
1:53 AM 46.9 °F - 42.1 °F 83% 29.86 in 10.0 mi Calm Calm - N/A   Clear
2:53 AM 45.0 °F - 41.0 °F 86% 29.86 in 10.0 mi Calm Calm - N/A   Clear
3:53 AM 46.0 °F 44.8 °F 41.0 °F 83% 29.86 in 10.0 mi East 3.5 mph - N/A   Clear
5:53 AM 46.9 °F - 42.1 °F 83% 29.85 in 10.0 mi East 4.6 mph - N/A   Clear
6:53 AM 48.0 °F - 42.1 °F 80% 29.86 in 10.0 mi East 3.5 mph - N/A   Clear
7:53 AM 48.0 °F - 43.0 °F 83% 29.87 in 10.0 mi East 3.5 mph - N/A   Clear
8:53 AM 54.0 °F - 46.0 °F 75% 29.88 in 10.0 mi SE 6.9 mph - N/A   Clear
9:53 AM 57.9 °F - 46.9 °F 67% 29.87 in 10.0 mi SSE 6.9 mph - N/A   Clear
10:53 AM 62.1 °F - 46.9 °F 58% 29.86 in 10.0 mi SSE 8.1 mph - N/A   Clear
11:53 AM 66.0 °F - 46.9 °F 50% 29.84 in 10.0 mi SSW 6.9 mph - N/A   Clear
1:53 PM 70.0 °F - 46.0 °F 42% 29.78 in 10.0 mi SW 8.1 mph - N/A   Clear
2:53 PM 71.1 °F - 45.0 °F 39% 29.75 in 10.0 mi South 9.2 mph - N/A   Clear
3:53 PM 70.0 °F - 45.0 °F 41% 29.74 in 10.0 mi SSE 8.1 mph - N/A   Clear
4:53 PM 69.1 °F - 46.0 °F 44% 29.76 in 10.0 mi SW 6.9 mph - N/A   Clear
5:53 PM 64.9 °F - 48.0 °F 54% 29.76 in 10.0 mi WSW 3.5 mph - N/A   Clear
6:53 PM 61.0 °F - 50.0 °F 67% 29.76 in 10.0 mi SSW 3.5 mph - N/A   Scattered Clouds
7:53 PM 57.9 °F - 48.9 °F 72% 29.77 in 10.0 mi Calm Calm - N/A   Scattered Clouds
8:53 PM 54.0 °F - 48.9 °F 83% 29.79 in 10.0 mi WSW 4.6 mph - N/A   Partly Cloudy
9:53 PM 54.0 °F - 48.9 °F 83% 29.79 in 10.0 mi Calm Calm - N/A   Overcast
10:53 PM 53.1 °F - 48.9 °F 86% 29.79 in 10.0 mi Calm Calm - N/A   Overcast
11:53 PM 53.1 °F - 48.9 °F 86% 29.80 in 10.0 mi Calm Calm - N/A   Overcast